Private Wetterstation Wechselburg
Wetterdaten: Samstag, 05.12.2020
Datum Zeit Temp. +2m Bodentemp. Temp.+5cm Temp. Wind Windchill X Diff Temp. Feuchte +2m Feuchte +5cm Luftdruck Regen Wind Richtung Richtung Sonnenschein Taupunkt Windchill Windben
05.12.2020 00:00 2,7 C 4,3 C 2,0 C 2,3 C 1,6 C 0,0 C 79 % 83 % 996,8 hPa 0,0 l/m 4,3 km/h (1 Bft) NO 45 0 min -0,6 C 1,6 C 3,2 km/h (1 Bft)
05.12.2020 00:05 2,6 C 4,3 C 1,9 C 2,2 C 1,4 C 0,0 C 79 % 83 % 996,8 hPa 0,0 l/m 4,3 km/h (1 Bft) O-NO 67 0 min -0,7 C 1,4 C 6,3 km/h (2 Bft)
05.12.2020 00:11 2,7 C 4,3 C 1,9 C 2,4 C 1,9 C 0,0 C 79 % 83 % 996,5 hPa 0,0 l/m 3,4 km/h (1 Bft) N 0 0 min -0,6 C 1,9 C 0,0 km/h (0 Bft)
05.12.2020 00:26 2,7 C 4,3 C 1,6 C 2,3 C 1,4 C 0,0 C 79 % 83 % 996,5 hPa 0,0 l/m 3,7 km/h (1 Bft) N-NO 22 0 min -0,6 C 1,4 C 2,1 km/h (1 Bft)
05.12.2020 00:38 2,7 C 4,4 C 1,7 C 2,2 C 1,1 C 0,0 C 79 % 84 % 997,0 hPa 0,0 l/m 4,0 km/h (1 Bft) O-NO 67 0 min -0,6 C 1,1 C 4,5 km/h (1 Bft)
05.12.2020 00:40 2,7 C 4,4 C 1,7 C 2,2 C 1,1 C 0,0 C 79 % 84 % 997,0 hPa 0,0 l/m 4,0 km/h (1 Bft) O-NO 67 0 min -0,6 C 1,1 C 4,5 km/h (1 Bft)
05.12.2020 00:45 2,6 C 4,4 C 1,8 C 2,2 C 1,4 C 0,0 C 79 % 83 % 997,0 hPa 0,0 l/m 3,7 km/h (1 Bft) NO 45 0 min -0,7 C 1,4 C 3,1 km/h (1 Bft)
05.12.2020 00:50 2,6 C 4,4 C 1,8 C 2,3 C 1,6 C 0,0 C 79 % 83 % 996,8 hPa 0,0 l/m 3,5 km/h (1 Bft) NO 45 0 min -0,7 C 1,6 C 4,3 km/h (1 Bft)
05.12.2020 00:55 2,5 C 4,4 C 1,8 C 2,2 C 1,6 C 0,0 C 79 % 83 % 996,8 hPa 0,0 l/m 3,4 km/h (1 Bft) NO 45 0 min -0,8 C 1,6 C 4,5 km/h (1 Bft)
05.12.2020 01:00 2,5 C 4,3 C 1,8 C 2,1 C 1,3 C 0,0 C 79 % 83 % 996,8 hPa 0,0 l/m 3,9 km/h (1 Bft) NO 45 0 min -0,8 C 1,3 C 4,3 km/h (1 Bft)
05.12.2020 01:05 2,5 C 4,4 C 1,8 C 2,0 C 0,9 C 0,0 C 79 % 83 % 996,8 hPa 0,0 l/m 4,7 km/h (1 Bft) NO 45 0 min -0,8 C -0,4 C 5,0 km/h (1 Bft)
05.12.2020 01:10 2,5 C 4,4 C 1,8 C 2,0 C 0,9 C 0,0 C 79 % 83 % 996,5 hPa 0,0 l/m 4,5 km/h (1 Bft) NO 45 0 min -0,8 C 0,9 C 4,8 km/h (1 Bft)
05.12.2020 01:15 2,4 C 4,4 C 1,6 C 1,9 C 0,8 C 0,0 C 79 % 83 % 996,5 hPa 0,0 l/m 4,3 km/h (1 Bft) NO 45 0 min -0,9 C 0,8 C 4,8 km/h (1 Bft)
05.12.2020 01:20 2,4 C 4,4 C 1,7 C 1,9 C 0,8 C 0,0 C 79 % 83 % 996,5 hPa 0,0 l/m 4,7 km/h (1 Bft) N-NO 22 0 min -0,9 C -0,5 C 4,8 km/h (1 Bft)
05.12.2020 01:25 2,4 C 4,4 C 1,7 C 1,8 C 0,6 C 0,0 C 80 % 84 % 996,5 hPa 0,0 l/m 5,1 km/h (1 Bft) N-NO 22 0 min -0,7 C -1,0 C 10,5 km/h (2 Bft)
05.12.2020 01:30 2,5 C 4,4 C 1,7 C 1,8 C 0,3 C 0,0 C 80 % 84 % 996,8 hPa 0,0 l/m 6,1 km/h (2 Bft) NO 45 0 min -0,6 C -1,7 C 8,4 km/h (2 Bft)
05.12.2020 01:35 2,6 C 4,4 C 1,7 C 1,9 C 0,6 C 0,0 C 80 % 84 % 996,8 hPa 0,0 l/m 6,0 km/h (2 Bft) N-NO 22 0 min -0,5 C -1,3 C 11,7 km/h (2 Bft)
05.12.2020 01:40 2,5 C 4,4 C 1,7 C 2,0 C 0,9 C 0,0 C 80 % 84 % 996,8 hPa 0,0 l/m 5,0 km/h (1 Bft) NO 45 0 min -0,6 C -0,6 C 4,0 km/h (1 Bft)
05.12.2020 01:45 2,4 C 4,4 C 1,6 C 1,9 C 0,9 C 0,0 C 80 % 84 % 996,8 hPa 0,0 l/m 4,5 km/h (1 Bft) O-NO 67 0 min -0,7 C 0,9 C 7,4 km/h (2 Bft)
05.12.2020 01:50 2,4 C 4,5 C 1,5 C 1,8 C 0,6 C 0,0 C 80 % 84 % 996,8 hPa 0,0 l/m 5,1 km/h (1 Bft) O-NO 67 0 min -0,7 C -1,0 C 7,1 km/h (2 Bft)
05.12.2020 01:55 2,4 C 4,5 C 1,5 C 1,8 C 0,6 C 0,0 C 80 % 84 % 996,8 hPa 0,0 l/m 5,1 km/h (1 Bft) NO 45 0 min -0,7 C -1,0 C 3,7 km/h (1 Bft)
05.12.2020 02:00 2,4 C 4,5 C 1,4 C 1,9 C 0,9 C 0,0 C 80 % 84 % 996,8 hPa 0,0 l/m 4,2 km/h (1 Bft) N-NO 22 0 min -0,7 C 0,9 C 4,5 km/h (1 Bft)
05.12.2020 02:05 2,4 C 4,5 C 1,5 C 2,0 C 1,1 C 0,0 C 80 % 84 % 996,8 hPa 0,0 l/m 3,9 km/h (1 Bft) NO 45 0 min -0,7 C 1,1 C 3,5 km/h (1 Bft)
05.12.2020 02:11 2,4 C 4,4 C 1,6 C 1,9 C 1,0 C 0,0 C 80 % 84 % 996,6 hPa 0,0 l/m 4,3 km/h (1 Bft) N 0 0 min -0,7 C 1,0 C 6,0 km/h (2 Bft)
05.12.2020 02:26 2,5 C 4,5 C 1,8 C 1,9 C 0,8 C 0,0 C 80 % 84 % 996,6 hPa 0,0 l/m 5,3 km/h (1 Bft) O-NO 67 0 min -0,6 C -0,8 C 11,9 km/h (2 Bft)
05.12.2020 02:37 2,8 C 4,5 C 2,0 C 2,2 C 1,0 C 0,0 C 79 % 84 % 996,9 hPa 0,0 l/m 6,3 km/h (2 Bft) O-NO 67 0 min -0,5 C -1,0 C 12,9 km/h (3 Bft)
05.12.2020 02:38 2,8 C 4,5 C 2,0 C 2,2 C 1,0 C 0,0 C 79 % 84 % 996,9 hPa 0,0 l/m 6,3 km/h (2 Bft) O-NO 67 0 min -0,5 C -1,0 C 9,0 km/h (2 Bft)
05.12.2020 02:40 2,8 C 4,5 C 2,0 C 2,2 C 1,0 C 0,0 C 79 % 84 % 996,9 hPa 0,0 l/m 6,3 km/h (2 Bft) O-NO 67 0 min -0,5 C -1,0 C 9,0 km/h (2 Bft)
05.12.2020 02:45 2,8 C 4,5 C 2,0 C 2,2 C 1,1 C 0,0 C 79 % 84 % 996,9 hPa 0,0 l/m 6,1 km/h (2 Bft) NO 45 0 min -0,5 C -0,8 C 6,4 km/h (2 Bft)
05.12.2020 02:50 2,8 C 4,5 C 2,1 C 2,3 C 1,3 C 0,0 C 79 % 84 % 997,0 hPa 0,0 l/m 5,8 km/h (2 Bft) NO 45 0 min -0,5 C -0,5 C 7,9 km/h (2 Bft)
05.12.2020 02:55 2,8 C 4,5 C 2,3 C 2,5 C 1,8 C 0,0 C 79 % 83 % 997,0 hPa 0,0 l/m 4,7 km/h (1 Bft) NO 45 0 min -0,5 C 0,6 C 4,3 km/h (1 Bft)
05.12.2020 03:00 2,8 C 4,5 C 2,3 C 2,5 C 1,9 C 0,0 C 79 % 83 % 997,0 hPa 0,0 l/m 4,3 km/h (1 Bft) NO 45 0 min -0,5 C 1,9 C 3,5 km/h (1 Bft)
05.12.2020 03:05 2,8 C 4,5 C 2,3 C 2,5 C 1,8 C 0,0 C 79 % 83 % 997,0 hPa 0,0 l/m 4,8 km/h (1 Bft) NO 45 0 min -0,5 C 0,5 C 7,1 km/h (2 Bft)
05.12.2020 03:10 2,9 C 4,5 C 2,3 C 2,5 C 1,7 C 0,0 C 79 % 83 % 996,9 hPa 0,0 l/m 5,1 km/h (1 Bft) N-NO 22 0 min -0,4 C 0,3 C 9,8 km/h (2 Bft)
05.12.2020 03:15 3,1 C 4,5 C 2,4 C 2,6 C 1,7 C 0,0 C 79 % 83 % 996,9 hPa 0,0 l/m 5,1 km/h (1 Bft) NO 45 0 min -0,2 C 0,3 C 6,3 km/h (2 Bft)
05.12.2020 03:20 3,1 C 4,5 C 2,5 C 2,8 C 2,1 C 0,0 C 79 % 82 % 996,9 hPa 0,0 l/m 4,7 km/h (1 Bft) NO 45 0 min -0,2 C 0,9 C 4,2 km/h (1 Bft)
05.12.2020 03:25 2,9 C 4,5 C 2,4 C 2,6 C 1,9 C 0,0 C 79 % 82 % 996,9 hPa 0,0 l/m 4,7 km/h (1 Bft) O-NO 67 0 min -0,4 C 0,7 C 0,0 km/h (0 Bft)
05.12.2020 03:30 2,9 C 4,5 C 2,3 C 2,5 C 1,8 C 0,0 C 79 % 82 % 995,9 hPa 0,0 l/m 4,7 km/h (1 Bft) NO 45 0 min -0,4 C 0,6 C 7,9 km/h (2 Bft)
05.12.2020 03:35 2,9 C 4,5 C 2,3 C 2,8 C 2,7 C 0,0 C 79 % 82 % 995,9 hPa 0,0 l/m 2,9 km/h (1 Bft) O 90 0 min -0,4 C 2,7 C 1,6 km/h (1 Bft)
05.12.2020 03:40 2,9 C 4,5 C 2,3 C 2,8 C 2,7 C 0,0 C 79 % 83 % 995,9 hPa 0,0 l/m 2,3 km/h (1 Bft) O 90 0 min -0,4 C 2,7 C 0,0 km/h (0 Bft)
05.12.2020 03:45 2,9 C 4,5 C 2,0 C 2,8 C 2,5 C 0,0 C 79 % 83 % 995,9 hPa 0,0 l/m 1,3 km/h (1 Bft) O 90 0 min -0,4 C 2,5 C 0,0 km/h (0 Bft)
05.12.2020 03:50 2,8 C 4,5 C 1,9 C 2,7 C 2,5 C 0,0 C 79 % 83 % 996,1 hPa 0,0 l/m 1,1 km/h (1 Bft) O 90 0 min -0,5 C 2,5 C 0,0 km/h (0 Bft)
05.12.2020 03:55 2,7 C 4,5 C 1,9 C 2,5 C 2,2 C 0,0 C 79 % 84 % 996,1 hPa 0,0 l/m 1,4 km/h (1 Bft) N-NO 22 0 min -0,6 C 2,2 C 3,1 km/h (1 Bft)
05.12.2020 04:00 2,7 C 4,5 C 1,9 C 2,5 C 2,2 C 0,0 C 79 % 84 % 996,1 hPa 0,0 l/m 1,9 km/h (1 Bft) O-NO 67 0 min -0,6 C 2,2 C 0,0 km/h (0 Bft)
05.12.2020 04:05 2,7 C 4,5 C 1,7 C 2,4 C 1,7 C 0,0 C 79 % 84 % 996,1 hPa 0,0 l/m 3,2 km/h (1 Bft) NO 45 0 min -0,6 C 1,7 C 3,9 km/h (1 Bft)
05.12.2020 04:11 2,6 C 4,5 C 1,8 C 2,4 C 2,1 C 0,0 C 79 % 84 % 995,1 hPa 0,0 l/m 2,4 km/h (1 Bft) N 0 0 min -0,7 C 2,1 C 4,8 km/h (1 Bft)
05.12.2020 04:27 2,7 C 4,5 C 1,6 C 2,5 C 2,0 C 0,0 C 79 % 83 % 995,1 hPa 0,0 l/m 0,8 km/h (0 Bft) NO 45 0 min -0,6 C 2,0 C 1,9 km/h (1 Bft)
05.12.2020 04:38 2,4 C 4,5 C 1,2 C 2,2 C 1,8 C 0,0 C 80 % 85 % 995,6 hPa 0,0 l/m 1,0 km/h (0 Bft) NO 45 0 min -0,7 C 1,8 C 0,0 km/h (0 Bft)
05.12.2020 04:40 2,4 C 4,5 C 1,2 C 2,2 C 1,8 C 0,0 C 80 % 85 % 995,6 hPa 0,0 l/m 1,0 km/h (0 Bft) NO 45 0 min -0,7 C 1,8 C 0,0 km/h (0 Bft)
05.12.2020 04:45 2,3 C 4,5 C 1,1 C 2,1 C 1,7 C 0,0 C 80 % 85 % 995,6 hPa 0,0 l/m 0,5 km/h (0 Bft) NO 45 0 min -0,8 C 1,7 C 0,0 km/h (0 Bft)
05.12.2020 04:50 2,2 C 4,5 C 1,1 C 2,0 C 1,6 C 0,0 C 80 % 85 % 995,4 hPa 0,0 l/m 0,0 km/h (0 Bft) NO 45 0 min -0,9 C 1,6 C 1,9 km/h (1 Bft)
05.12.2020 04:55 2,1 C 4,5 C 1,0 C 2,0 C 1,7 C 0,0 C 80 % 85 % 995,4 hPa 0,0 l/m 0,8 km/h (0 Bft) NO 45 0 min -1,0 C 1,7 C 0,0 km/h (0 Bft)
05.12.2020 05:00 2,1 C 4,5 C 1,0 C 2,0 C 1,7 C 0,0 C 80 % 85 % 995,4 hPa 0,0 l/m 0,8 km/h (0 Bft) NO 45 0 min -1,0 C 1,7 C 0,0 km/h (0 Bft)
05.12.2020 05:05 2,1 C 4,5 C 1,0 C 1,9 C 1,6 C 0,0 C 80 % 85 % 995,4 hPa 0,0 l/m 0,8 km/h (0 Bft) NO 45 0 min -1,0 C 1,6 C 2,7 km/h (1 Bft)
05.12.2020 05:10 2,3 C 4,5 C 1,1 C 2,1 C 1,8 C 0,0 C 81 % 86 % 995,8 hPa 0,0 l/m 1,0 km/h (0 Bft) NO 45 0 min -0,6 C 1,8 C 1,9 km/h (1 Bft)
05.12.2020 05:15 2,5 C 4,5 C 1,2 C 2,4 C 2,1 C 0,0 C 81 % 86 % 995,8 hPa 0,0 l/m 1,9 km/h (1 Bft) O-NO 67 0 min -0,4 C 2,1 C 2,4 km/h (1 Bft)
05.12.2020 05:20 2,7 C 4,5 C 1,5 C 2,6 C 2,4 C 0,0 C 81 % 86 % 995,8 hPa 0,0 l/m 2,3 km/h (1 Bft) O 90 0 min -0,2 C 2,4 C 3,4 km/h (1 Bft)
05.12.2020 05:25 3,1 C 4,5 C 1,8 C 3,0 C 2,7 C 0,0 C 81 % 86 % 995,8 hPa 0,0 l/m 3,2 km/h (1 Bft) O-NO 67 0 min 0,2 C 2,7 C 5,1 km/h (1 Bft)
05.12.2020 05:30 3,4 C 4,5 C 2,1 C 3,2 C 2,9 C 0,0 C 81 % 86 % 995,1 hPa 0,0 l/m 3,7 km/h (1 Bft) N-NO 22 0 min 0,5 C 2,9 C 3,4 km/h (1 Bft)
05.12.2020 05:35 3,6 C 4,5 C 2,2 C 3,5 C 3,4 C 0,0 C 80 % 85 % 995,1 hPa 0,0 l/m 3,2 km/h (1 Bft) NO 45 0 min 0,5 C 3,4 C 1,8 km/h (1 Bft)
05.12.2020 05:40 3,7 C 4,5 C 2,6 C 3,7 C 3,6 C 0,0 C 80 % 85 % 995,1 hPa 0,0 l/m 2,4 km/h (1 Bft) N-NO 22 0 min 0,6 C 3,6 C 1,9 km/h (1 Bft)
05.12.2020 05:45 3,9 C 4,5 C 2,7 C 3,8 C 3,6 C 0,0 C 80 % 84 % 995,1 hPa 0,0 l/m 1,4 km/h (1 Bft) SO 135 0 min 0,8 C 3,6 C 9,7 km/h (2 Bft)
05.12.2020 05:50 4,0 C 4,5 C 2,7 C 3,9 C 3,6 C 0,0 C 79 % 84 % 995,6 hPa 0,0 l/m 1,6 km/h (1 Bft) S-SW 202 0 min 0,7 C 3,6 C 4,0 km/h (1 Bft)
05.12.2020 05:55 4,3 C 4,4 C 2,8 C 4,1 C 3,7 C 0,0 C 79 % 84 % 995,6 hPa 0,0 l/m 2,9 km/h (1 Bft) S-SO 157 0 min 1,0 C 3,7 C 14,6 km/h (3 Bft)
05.12.2020 06:00 4,5 C 4,4 C 2,9 C 4,3 C 4,0 C 0,0 C 78 % 83 % 995,6 hPa 0,0 l/m 2,4 km/h (1 Bft) NO 45 0 min 1,0 C 4,0 C 2,3 km/h (1 Bft)
05.12.2020 06:05 4,5 C 4,4 C 2,8 C 4,3 C 3,9 C 0,0 C 77 % 83 % 995,6 hPa 0,0 l/m 1,3 km/h (1 Bft) S-SO 157 0 min 0,8 C 3,9 C 0,0 km/h (0 Bft)
05.12.2020 06:11 4,5 C 4,4 C 2,9 C 4,3 C 3,9 C 0,0 C 77 % 83 % 996,1 hPa 0,0 l/m 1,1 km/h (1 Bft) N 0 0 min 0,8 C 3,9 C 0,0 km/h (0 Bft)
05.12.2020 06:27 4,5 C 4,4 C 2,9 C 4,3 C 3,8 C 0,0 C 77 % 83 % 996,1 hPa 0,0 l/m 0,8 km/h (0 Bft) S-SO 157 0 min 0,8 C 3,8 C 0,0 km/h (0 Bft)
05.12.2020 06:38 4,4 C 4,4 C 2,6 C 4,1 C 3,6 C 0,0 C 76 % 82 % 997,2 hPa 0,0 l/m 0,0 km/h (0 Bft) O-NO 67 0 min 0,5 C 3,6 C 0,0 km/h (0 Bft)
05.12.2020 06:40 4,4 C 4,4 C 2,6 C 4,1 C 3,6 C 0,0 C 76 % 82 % 997,2 hPa 0,0 l/m 0,0 km/h (0 Bft) O-NO 67 0 min 0,5 C 3,6 C 0,0 km/h (0 Bft)
05.12.2020 06:45 4,3 C 4,4 C 2,2 C 4,0 C 3,3 C 0,0 C 76 % 82 % 997,2 hPa 0,0 l/m 0,0 km/h (0 Bft) O-NO 67 0 min 0,5 C 3,3 C 0,0 km/h (0 Bft)
05.12.2020 06:50 4,0 C 4,4 C 2,1 C 3,7 C 3,0 C 0,0 C 76 % 83 % 997,6 hPa 0,0 l/m 0,3 km/h (0 Bft) SW 225 0 min 0,2 C 3,0 C 0,0 km/h (0 Bft)
05.12.2020 06:55 3,9 C 4,4 C 2,0 C 3,5 C 2,8 C 0,0 C 76 % 84 % 997,6 hPa 0,0 l/m 1,6 km/h (1 Bft) S-SW 202 0 min 0,1 C 2,8 C 4,8 km/h (1 Bft)
05.12.2020 07:00 3,9 C 4,4 C 2,3 C 3,6 C 2,9 C 0,0 C 76 % 84 % 997,6 hPa 0,0 l/m 2,3 km/h (1 Bft) NO 45 0 min 0,1 C 2,9 C 2,3 km/h (1 Bft)
05.12.2020 07:05 3,6 C 4,5 C 2,1 C 3,3 C 2,6 C 0,0 C 76 % 83 % 997,6 hPa 0,0 l/m 2,1 km/h (1 Bft) SW 225 0 min -0,2 C 2,6 C 5,0 km/h (1 Bft)
05.12.2020 07:10 3,3 C 4,5 C 2,0 C 3,0 C 2,4 C 0,0 C 76 % 83 % 998,5 hPa 0,0 l/m 1,6 km/h (1 Bft) W-SW 247 0 min -0,5 C 2,4 C 3,9 km/h (1 Bft)
05.12.2020 07:15 3,1 C 4,5 C 1,9 C 2,8 C 2,1 C 0,0 C 76 % 83 % 998,5 hPa 0,0 l/m 2,4 km/h (1 Bft) SW 225 0 min -0,7 C 2,1 C 3,1 km/h (1 Bft)
05.12.2020 07:20 2,9 C 4,5 C 1,7 C 2,6 C 1,9 C 0,0 C 76 % 83 % 998,5 hPa 0,0 l/m 1,9 km/h (1 Bft) S-SW 202 0 min -0,9 C 1,9 C 0,0 km/h (0 Bft)
05.12.2020 07:25 2,7 C 4,6 C 1,5 C 2,3 C 1,6 C 0,0 C 77 % 83 % 998,5 hPa 0,0 l/m 1,1 km/h (1 Bft) SO 135 0 min -0,9 C 1,6 C 0,0 km/h (0 Bft)
05.12.2020 07:30 2,5 C 4,6 C 1,4 C 2,1 C 1,4 C 0,0 C 77 % 83 % 998,9 hPa 0,0 l/m 1,3 km/h (1 Bft) SW 225 0 min -1,1 C 1,4 C 3,5 km/h (1 Bft)
05.12.2020 07:35 2,3 C 4,6 C 1,1 C 1,9 C 1,0 C 0,0 C 77 % 83 % 998,9 hPa 0,0 l/m 1,3 km/h (1 Bft) SW 225 0 min -1,3 C 1,0 C 0,0 km/h (0 Bft)
05.12.2020 07:40 2,1 C 4,6 C 1,0 C 1,7 C 0,8 C 0,0 C 78 % 83 % 998,9 hPa 0,0 l/m 0,6 km/h (0 Bft) SW 225 0 min -1,3 C 0,8 C 1,8 km/h (1 Bft)
05.12.2020 07:45 1,8 C 4,6 C 0,7 C 1,3 C 0,4 C 0,0 C 78 % 84 % 998,9 hPa 0,0 l/m 0,8 km/h (0 Bft) SW 225 0 min -1,6 C 0,4 C 1,6 km/h (1 Bft)
05.12.2020 07:50 1,7 C 4,6 C 0,6 C 1,2 C 0,3 C 0,0 C 78 % 84 % 999,0 hPa 0,0 l/m 1,3 km/h (1 Bft) SW 225 0 min -1,7 C 0,3 C 2,7 km/h (1 Bft)
05.12.2020 07:55 1,6 C 4,6 C 0,4 C 1,1 C 0,0 C 0,0 C 79 % 85 % 999,0 hPa 0,0 l/m 0,8 km/h (0 Bft) SW 225 0 min -1,6 C 0,0 C 0,0 km/h (0 Bft)
05.12.2020 08:00 1,5 C 4,6 C 0,1 C 0,9 C -0,2 C 0,0 C 79 % 85 % 999,0 hPa 0,0 l/m 0,5 km/h (0 Bft) SW 225 0 min -1,7 C -0,2 C 0,0 km/h (0 Bft)
05.12.2020 08:05 1,2 C 4,6 C -0,1 C 0,6 C -0,6 C 0,0 C 79 % 85 % 999,0 hPa 0,0 l/m 0,0 km/h (0 Bft) SW 225 0 min -2,0 C -0,6 C 0,0 km/h (0 Bft)
05.12.2020 08:11 1,1 C 4,6 C -0,1 C 0,5 C -0,7 C 0,0 C 79 % 86 % 1000,4 hPa 0,0 l/m 0,0 km/h (0 Bft) N 0 0 min -2,1 C -0,7 C 0,0 km/h (0 Bft)
05.12.2020 08:27 0,7 C 4,6 C -0,2 C 0,3 C -0,6 C 0,0 C 80 % 87 % 1000,4 hPa 0,0 l/m 1,1 km/h (1 Bft) SO 135 0 min -2,3 C -0,6 C 0,0 km/h (0 Bft)
05.12.2020 08:38 0,5 C 4,6 C -0,3 C 0,2 C -0,4 C 0,0 C 81 % 87 % 1000,3 hPa 0,0 l/m 0,0 km/h (0 Bft) NO 45 0 min -2,4 C -0,4 C 0,0 km/h (0 Bft)
05.12.2020 08:40 0,5 C 4,6 C -0,3 C 0,2 C -0,4 C 0,0 C 81 % 87 % 1000,3 hPa 0,0 l/m 0,0 km/h (0 Bft) NO 45 0 min -2,4 C -0,4 C 0,0 km/h (0 Bft)
05.12.2020 08:45 0,6 C 4,6 C -0,1 C 0,3 C -0,2 C 0,0 C 82 % 88 % 1000,3 hPa 0,0 l/m 0,0 km/h (0 Bft) NO 45 0 min -2,1 C -0,2 C 1,6 km/h (1 Bft)
05.12.2020 08:50 0,5 C 4,6 C -0,1 C 0,3 C -0,2 C 0,0 C 82 % 88 % 1001,1 hPa 0,0 l/m 0,3 km/h (0 Bft) NO 45 0 min -2,2 C -0,2 C 2,3 km/h (1 Bft)
05.12.2020 08:55 0,7 C 4,6 C -0,1 C 0,5 C 0,0 C 0,0 C 82 % 87 % 1001,1 hPa 0,0 l/m 0,8 km/h (0 Bft) NO 45 0 min -2,0 C 0,0 C 0,0 km/h (0 Bft)
05.12.2020 09:00 0,7 C 4,6 C -0,1 C 0,5 C 0,1 C 0,0 C 82 % 87 % 1001,1 hPa 0,0 l/m 0,6 km/h (0 Bft) NO 45 0 min -2,0 C 0,1 C 0,0 km/h (0 Bft)
05.12.2020 09:05 0,5 C 4,6 C -0,2 C 0,3 C 0,0 C 0,0 C 82 % 87 % 1001,1 hPa 0,0 l/m 0,0 km/h (0 Bft) NO 45 0 min -2,2 C 0,0 C 0,0 km/h (0 Bft)
05.12.2020 09:10 0,5 C 4,6 C -0,2 C 0,3 C -0,1 C 0,0 C 82 % 87 % 1000,2 hPa 0,0 l/m 0,0 km/h (0 Bft) NO 45 0 min -2,2 C -0,1 C 0,0 km/h (0 Bft)
05.12.2020 09:15 0,7 C 4,6 C -0,1 C 0,5 C 0,1 C 0,0 C 83 % 88 % 1000,2 hPa 0,0 l/m 1,6 km/h (1 Bft) O-NO 67 0 min -1,8 C 0,1 C 3,4 km/h (1 Bft)
05.12.2020 09:20 0,8 C 4,6 C -0,1 C 0,7 C 0,5 C 0,0 C 83 % 88 % 1000,2 hPa 0,0 l/m 2,3 km/h (1 Bft) O-NO 67 0 min -1,8 C 0,5 C 0,0 km/h (0 Bft)
05.12.2020 09:25 0,8 C 4,6 C 0,0 C 0,8 C 0,7 C 0,0 C 83 % 88 % 1000,2 hPa 0,0 l/m 1,1 km/h (1 Bft) O-NO 67 0 min -1,8 C 0,7 C 0,0 km/h (0 Bft)
05.12.2020 09:30 0,8 C 4,6 C 0,0 C 0,7 C 0,6 C 0,0 C 83 % 88 % 1000,9 hPa 0,0 l/m 0,3 km/h (0 Bft) O-NO 67 0 min -1,8 C 0,6 C 0,0 km/h (0 Bft)
05.12.2020 09:35 0,8 C 4,6 C 0,0 C 0,7 C 0,5 C 0,0 C 83 % 88 % 1000,9 hPa 0,0 l/m 0,2 km/h (0 Bft) O-NO 67 0 min -1,8 C 0,5 C 0,0 km/h (0 Bft)
05.12.2020 09:40 0,9 C 4,6 C 0,1 C 0,8 C 0,6 C 0,0 C 83 % 88 % 1000,9 hPa 0,0 l/m 1,3 km/h (1 Bft) NO 45 0 min -1,7 C 0,6 C 5,8 km/h (2 Bft)
05.12.2020 09:45 1,6 C 4,6 C 0,6 C 1,4 C 0,9 C 0,0 C 84 % 89 % 1000,9 hPa 0,0 l/m 3,2 km/h (1 Bft) O-NO 67 0 min -0,8 C 0,9 C 1,8 km/h (1 Bft)
05.12.2020 09:50 1,7 C 4,5 C 0,8 C 1,6 C 1,4 C 0,0 C 84 % 88 % 1001,6 hPa 0,0 l/m 3,1 km/h (1 Bft) SW 225 0 min -0,7 C 1,4 C 2,4 km/h (1 Bft)
05.12.2020 09:55 1,9 C 4,6 C 0,9 C 1,9 C 1,9 C 0,0 C 84 % 88 % 1001,6 hPa 0,0 l/m 1,3 km/h (1 Bft) W 270 0 min -0,5 C 1,9 C 2,9 km/h (1 Bft)
05.12.2020 10:00 1,9 C 4,5 C 0,8 C 2,3 C 2,3 C 0,4 C 84 % 88 % 1001,6 hPa 0,0 l/m 1,4 km/h (1 Bft) W-SW 247 0 min -0,5 C 2,3 C 0,0 km/h (0 Bft)
05.12.2020 10:05 2,0 C 4,5 C 0,9 C 2,5 C 2,5 C 0,5 C 83 % 87 % 1001,6 hPa 0,0 l/m 1,3 km/h (1 Bft) W-SW 247 0 min -0,6 C 2,5 C 0,0 km/h (0 Bft)
05.12.2020 10:11 2,0 C 4,6 C 1,1 C 2,9 C 2,9 C 0,9 C 83 % 88 % 1002,4 hPa 0,0 l/m 1,0 km/h (0 Bft) N 0 0 min -0,6 C 2,9 C 2,6 km/h (1 Bft)
05.12.2020 10:26 2,6 C 4,6 C 2,1 C 4,0 C 4,0 C 1,4 C 83 % 88 % 1002,4 hPa 0,0 l/m 0,5 km/h (0 Bft) NO 45 0 min 0,0 C 4,0 C 3,7 km/h (1 Bft)
05.12.2020 10:30 2,8 C 4,6 C 2,5 C 4,2 C 4,2 C 1,4 C 83 % 87 % 1003,4 hPa 0,0 l/m 1,0 km/h (0 Bft) O-NO 67 0 min 0,2 C 4,2 C 0,0 km/h (0 Bft)
05.12.2020 10:35 3,1 C 4,6 C 2,9 C 4,7 C 4,7 C 1,6 C 82 % 86 % 1003,4 hPa 0,0 l/m 1,3 km/h (1 Bft) NO 45 0 min 0,3 C 4,7 C 4,5 km/h (1 Bft)
05.12.2020 10:40 3,3 C 4,6 C 3,1 C 4,8 C 4,8 C 1,5 C 82 % 86 % 1003,4 hPa 0,0 l/m 1,3 km/h (1 Bft) NO 45 0 min 0,5 C 4,8 C 3,5 km/h (1 Bft)
05.12.2020 10:45 3,6 C 4,5 C 3,5 C 5,2 C 5,2 C 1,6 C 82 % 85 % 1003,4 hPa 0,0 l/m 1,4 km/h (1 Bft) O-NO 67 0 min 0,8 C 5,2 C 0,0 km/h (0 Bft)
05.12.2020 10:50 3,8 C 4,5 C 3,7 C 5,4 C 5,4 C 1,6 C 81 % 85 % 1003,4 hPa 0,0 l/m 1,3 km/h (1 Bft) S 180 0 min 0,8 C 5,4 C 1,8 km/h (1 Bft)
05.12.2020 10:55 4,0 C 4,5 C 3,9 C 5,6 C 5,6 C 1,6 C 81 % 84 % 1003,4 hPa 0,0 l/m 0,8 km/h (0 Bft) O-NO 67 0 min 1,0 C 5,6 C 0,0 km/h (0 Bft)
05.12.2020 11:00 4,1 C 4,5 C 4,1 C 5,8 C 5,8 C 1,7 C 80 % 84 % 1003,4 hPa 0,0 l/m 0,5 km/h (0 Bft) S 180 0 min 1,0 C 5,8 C 0,0 km/h (0 Bft)
05.12.2020 11:05 4,3 C 4,5 C 4,1 C 5,9 C 5,9 C 1,6 C 80 % 83 % 1003,4 hPa 0,0 l/m 0,6 km/h (0 Bft) NO 45 0 min 1,2 C 5,9 C 0,0 km/h (0 Bft)
05.12.2020 11:10 4,5 C 4,5 C 4,2 C 5,9 C 5,9 C 1,4 C 79 % 83 % 1003,3 hPa 0,0 l/m 0,8 km/h (0 Bft) O-NO 67 0 min 1,2 C 5,9 C 0,0 km/h (0 Bft)
05.12.2020 11:15 4,7 C 4,5 C 4,5 C 6,4 C 6,4 C 1,7 C 79 % 82 % 1003,3 hPa 0,0 l/m 0,3 km/h (0 Bft) N-NW 337 0 min 1,4 C 6,4 C 0,0 km/h (0 Bft)
05.12.2020 11:20 4,7 C 4,5 C 4,4 C 7,2 C 7,2 C 2,5 C 79 % 82 % 1003,3 hPa 0,0 l/m 0,0 km/h (0 Bft) N-NW 337 0 min 1,4 C 7,2 C 0,0 km/h (0 Bft)
05.12.2020 11:25 4,8 C 4,5 C 4,4 C 7,1 C 7,1 C 2,3 C 78 % 82 % 1003,3 hPa 0,0 l/m 0,0 km/h (0 Bft) S 180 0 min 1,3 C 7,1 C 0,0 km/h (0 Bft)
05.12.2020 11:30 4,9 C 4,5 C 4,6 C 7,2 C 7,2 C 2,3 C 78 % 82 % 1003,9 hPa 0,0 l/m 0,2 km/h (0 Bft) SO 135 0 min 1,4 C 7,2 C 0,0 km/h (0 Bft)
05.12.2020 11:35 5,2 C 4,5 C 4,8 C 7,2 C 7,2 C 2,0 C 77 % 80 % 1003,9 hPa 0,0 l/m 1,1 km/h (1 Bft) W-SW 247 0 min 1,5 C 7,2 C 1,6 km/h (1 Bft)
05.12.2020 11:40 5,3 C 4,5 C 5,1 C 7,6 C 7,6 C 2,3 C 77 % 81 % 1003,9 hPa 0,0 l/m 2,1 km/h (1 Bft) W 270 0 min 1,6 C 7,6 C 2,9 km/h (1 Bft)
05.12.2020 11:45 5,5 C 4,5 C 5,1 C 7,4 C 7,4 C 1,9 C 76 % 79 % 1003,9 hPa 0,0 l/m 4,2 km/h (1 Bft) W-SW 247 0 min 1,6 C 7,4 C 14,6 km/h (3 Bft)
05.12.2020 11:50 5,7 C 4,5 C 5,2 C 6,6 C 6,6 C 0,9 C 75 % 79 % 1003,9 hPa 0,0 l/m 5,6 km/h (1 Bft) W-SW 247 0 min 1,6 C 5,7 C 6,6 km/h (2 Bft)
05.12.2020 11:55 5,6 C 4,5 C 5,3 C 6,4 C 6,4 C 0,8 C 74 % 77 % 1003,9 hPa 0,0 l/m 5,0 km/h (1 Bft) S-SO 157 0 min 1,3 C 5,7 C 5,8 km/h (2 Bft)
05.12.2020 12:00 5,7 C 4,5 C 5,4 C 7,1 C 7,1 C 1,4 C 74 % 78 % 1003,9 hPa 0,0 l/m 2,9 km/h (1 Bft) S 180 0 min 1,4 C 7,1 C 0,0 km/h (0 Bft)
05.12.2020 12:05 5,9 C 4,5 C 5,5 C 7,2 C 7,2 C 1,3 C 74 % 78 % 1003,9 hPa 0,0 l/m 2,6 km/h (1 Bft) SW 225 0 min 1,6 C 7,2 C 2,7 km/h (1 Bft)
05.12.2020 12:10 5,9 C 4,5 C 5,6 C 7,3 C 7,3 C 1,4 C 74 % 78 % 1003,8 hPa 0,0 l/m 1,8 km/h (1 Bft) S-SO 157 0 min 1,6 C 7,3 C 0,0 km/h (0 Bft)
05.12.2020 12:15 6,0 C 4,6 C 5,8 C 7,5 C 7,5 C 1,5 C 74 % 78 % 1003,8 hPa 0,0 l/m 1,0 km/h (0 Bft) O-NO 67 0 min 1,7 C 7,5 C 0,0 km/h (0 Bft)
05.12.2020 12:20 6,0 C 4,6 C 5,9 C 7,6 C 7,6 C 1,6 C 74 % 77 % 1003,8 hPa 0,0 l/m 1,0 km/h (0 Bft) SW 225 0 min 1,7 C 7,6 C 0,0 km/h (0 Bft)
05.12.2020 12:25 6,1 C 4,6 C 5,9 C 7,5 C 7,5 C 1,4 C 73 % 77 % 1003,8 hPa 0,0 l/m 2,1 km/h (1 Bft) S-SO 157 0 min 1,6 C 7,5 C 0,0 km/h (0 Bft)
05.12.2020 12:30 6,2 C 4,6 C 5,9 C 7,5 C 7,5 C 1,3 C 73 % 76 % 1004,1 hPa 0,0 l/m 1,6 km/h (1 Bft) O 90 0 min 1,7 C 7,5 C 0,0 km/h (0 Bft)
05.12.2020 12:35 6,3 C 4,6 C 5,9 C 7,5 C 7,5 C 1,2 C 73 % 76 % 1004,1 hPa 0,0 l/m 0,5 km/h (0 Bft) NO 45 0 min 1,8 C 7,5 C 2,6 km/h (1 Bft)
05.12.2020 12:40 6,2 C 4,6 C 6,1 C 7,5 C 7,5 C 1,3 C 73 % 76 % 1004,1 hPa 0,0 l/m 0,8 km/h (0 Bft) NO 45 0 min 1,7 C 7,5 C 0,0 km/h (0 Bft)
05.12.2020 12:45 6,4 C 4,6 C 6,2 C 7,9 C 7,9 C 1,5 C 73 % 76 % 1004,1 hPa 0,0 l/m 1,3 km/h (1 Bft) SW 225 0 min 1,9 C 7,9 C 3,1 km/h (1 Bft)
05.12.2020 12:50 6,4 C 4,6 C 6,2 C 8,1 C 8,1 C 1,7 C 72 % 75 % 1004,6 hPa 0,0 l/m 1,6 km/h (1 Bft) N-NO 22 0 min 1,7 C 8,1 C 4,7 km/h (1 Bft)
05.12.2020 12:55 6,5 C 4,6 C 6,1 C 8,1 C 8,1 C 1,6 C 72 % 75 % 1004,6 hPa 0,0 l/m 1,3 km/h (1 Bft) S-SO 157 0 min 1,8 C 8,1 C 3,5 km/h (1 Bft)
05.12.2020 13:00 6,5 C 4,6 C 6,1 C 7,9 C 7,9 C 1,4 C 72 % 75 % 1004,6 hPa 0,0 l/m 0,6 km/h (0 Bft) W-SW 247 0 min 1,8 C 7,9 C 1,6 km/h (1 Bft)
05.12.2020 13:05 6,6 C 4,6 C 6,1 C 7,8 C 7,8 C 1,2 C 72 % 75 % 1004,6 hPa 0,0 l/m 0,8 km/h (0 Bft) S-SO 157 0 min 1,9 C 7,8 C 3,2 km/h (1 Bft)
05.12.2020 13:10 6,7 C 4,6 C 6,0 C 7,6 C 7,6 C 0,9 C 71 % 75 % 1005,4 hPa 0,0 l/m 1,0 km/h (0 Bft) W-SW 247 0 min 1,8 C 7,6 C 1,6 km/h (1 Bft)
05.12.2020 13:15 6,6 C 4,6 C 5,9 C 7,4 C 7,4 C 0,8 C 71 % 75 % 1005,4 hPa 0,0 l/m 1,3 km/h (1 Bft) SW 225 0 min 1,7 C 7,4 C 0,0 km/h (0 Bft)
05.12.2020 13:20 6,5 C 4,7 C 5,9 C 7,3 C 7,3 C 0,8 C 71 % 75 % 1005,4 hPa 0,0 l/m 1,6 km/h (1 Bft) SW 225 0 min 1,6 C 7,3 C 2,6 km/h (1 Bft)
05.12.2020 13:25 6,4 C 4,7 C 5,9 C 7,2 C 7,2 C 0,8 C 71 % 75 % 1005,4 hPa 0,0 l/m 1,4 km/h (1 Bft) S-SO 157 0 min 1,5 C 7,2 C 0,0 km/h (0 Bft)
05.12.2020 13:30 6,4 C 4,7 C 5,9 C 7,2 C 7,2 C 0,8 C 71 % 75 % 1004,9 hPa 0,0 l/m 1,0 km/h (0 Bft) N-NO 22 0 min 1,5 C 7,2 C 0,0 km/h (0 Bft)
05.12.2020 13:35 6,4 C 4,7 C 5,9 C 7,1 C 7,1 C 0,7 C 71 % 74 % 1004,9 hPa 0,0 l/m 0,8 km/h (0 Bft) W-SW 247 0 min 1,5 C 7,1 C 0,0 km/h (0 Bft)
05.12.2020 13:40 6,4 C 4,7 C 5,9 C 7,0 C 7,0 C 0,6 C 71 % 74 % 1004,9 hPa 0,0 l/m 0,8 km/h (0 Bft) NW 315 0 min 1,5 C 7,0 C 0,0 km/h (0 Bft)
05.12.2020 13:45 6,3 C 4,7 C 5,9 C 7,0 C 7,0 C 0,7 C 71 % 75 % 1004,9 hPa 0,0 l/m 0,5 km/h (0 Bft) W-SW 247 0 min 1,4 C 7,0 C 2,1 km/h (1 Bft)
05.12.2020 13:50 6,2 C 4,7 C 5,8 C 6,9 C 6,9 C 0,7 C 71 % 75 % 1004,8 hPa 0,0 l/m 1,0 km/h (0 Bft) W-SW 247 0 min 1,3 C 6,9 C 2,4 km/h (1 Bft)
05.12.2020 13:55 6,3 C 4,7 C 5,7 C 6,8 C 6,8 C 0,5 C 71 % 75 % 1004,8 hPa 0,0 l/m 1,4 km/h (1 Bft) S-SW 202 0 min 1,4 C 6,8 C 1,8 km/h (1 Bft)
05.12.2020 14:00 6,3 C 4,7 C 5,7 C 6,7 C 6,7 C 0,4 C 71 % 75 % 1004,8 hPa 0,0 l/m 1,3 km/h (1 Bft) S-SW 202 0 min 1,4 C 6,7 C 0,0 km/h (0 Bft)
05.12.2020 14:05 6,1 C 4,7 C 5,6 C 6,6 C 6,6 C 0,5 C 72 % 76 % 1004,8 hPa 0,0 l/m 0,3 km/h (0 Bft) SO 135 0 min 1,4 C 6,6 C 0,0 km/h (0 Bft)
05.12.2020 14:10 6,1 C 4,7 C 5,5 C 6,5 C 6,5 C 0,4 C 72 % 76 % 1004,8 hPa 0,0 l/m 0,2 km/h (0 Bft) SO 135 0 min 1,4 C 6,5 C 0,0 km/h (0 Bft)
05.12.2020 14:15 6,1 C 4,7 C 5,5 C 6,4 C 6,4 C 0,3 C 72 % 76 % 1004,8 hPa 0,0 l/m 0,0 km/h (0 Bft) SO 135 0 min 1,4 C 6,4 C 0,0 km/h (0 Bft)
05.12.2020 14:20 6,0 C 4,7 C 5,5 C 6,4 C 6,4 C 0,4 C 72 % 77 % 1004,8 hPa 0,0 l/m 0,0 km/h (0 Bft) SO 135 0 min 1,3 C 6,4 C 0,0 km/h (0 Bft)
05.12.2020 14:25 6,0 C 4,7 C 5,5 C 6,5 C 6,5 C 0,5 C 72 % 76 % 1004,8 hPa 0,0 l/m 0,0 km/h (0 Bft) SO 135 0 min 1,3 C 6,5 C 0,0 km/h (0 Bft)
05.12.2020 14:30 6,0 C 4,7 C 5,6 C 6,4 C 6,4 C 0,4 C 72 % 76 % 1005,4 hPa 0,0 l/m 0,0 km/h (0 Bft) SO 135 0 min 1,3 C 6,4 C 0,0 km/h (0 Bft)
05.12.2020 14:35 6,0 C 4,9 C 5,5 C 6,4 C 6,4 C 0,4 C 72 % 76 % 1005,4 hPa 0,0 l/m 0,0 km/h (0 Bft) SO 135 0 min 1,3 C 6,4 C 0,0 km/h (0 Bft)
05.12.2020 14:40 6,0 C 4,9 C 5,5 C 6,4 C 6,4 C 0,4 C 72 % 76 % 1005,4 hPa 0,0 l/m 0,0 km/h (0 Bft) SO 135 0 min 1,3 C 6,4 C 0,0 km/h (0 Bft)
05.12.2020 14:45 6,0 C 4,9 C 5,4 C 6,3 C 6,3 C 0,3 C 72 % 77 % 1005,4 hPa 0,0 l/m 0,3 km/h (0 Bft) NO 45 0 min 1,3 C 6,3 C 1,8 km/h (1 Bft)
05.12.2020 14:50 6,0 C 4,9 C 5,4 C 6,3 C 6,3 C 0,3 C 73 % 77 % 1005,4 hPa 0,0 l/m 1,1 km/h (1 Bft) NO 45 0 min 1,5 C 6,3 C 3,1 km/h (1 Bft)
05.12.2020 14:55 5,9 C 4,9 C 5,2 C 6,2 C 6,2 C 0,3 C 72 % 77 % 1005,4 hPa 0,0 l/m 3,2 km/h (1 Bft) O-NO 67 0 min 1,2 C 6,2 C 4,5 km/h (1 Bft)
05.12.2020 15:00 5,9 C 4,9 C 5,2 C 6,2 C 6,2 C 0,3 C 72 % 77 % 1005,4 hPa 0,0 l/m 2,7 km/h (1 Bft) O-NO 67 0 min 1,2 C 6,2 C 0,0 km/h (0 Bft)
05.12.2020 15:05 5,9 C 4,9 C 5,1 C 6,1 C 6,1 C 0,2 C 72 % 77 % 1005,4 hPa 0,0 l/m 0,6 km/h (0 Bft) O-NO 67 0 min 1,2 C 6,1 C 0,0 km/h (0 Bft)
05.12.2020 15:10 5,8 C 4,9 C 5,1 C 6,0 C 6,0 C 0,2 C 73 % 77 % 1005,8 hPa 0,0 l/m 0,0 km/h (0 Bft) O-NO 67 0 min 1,3 C 6,0 C 0,0 km/h (0 Bft)
05.12.2020 15:15 5,7 C 4,9 C 4,9 C 5,8 C 5,8 C 0,1 C 73 % 77 % 1005,8 hPa 0,0 l/m 0,0 km/h (0 Bft) O-NO 67 0 min 1,2 C 5,8 C 0,0 km/h (0 Bft)
05.12.2020 15:20 5,7 C 4,9 C 4,8 C 5,7 C 5,7 C 0,0 C 73 % 78 % 1005,8 hPa 0,0 l/m 0,0 km/h (0 Bft) O-NO 67 0 min 1,2 C 5,7 C 0,0 km/h (0 Bft)
05.12.2020 15:25 5,5 C 4,9 C 4,7 C 5,6 C 5,6 C 0,1 C 73 % 78 % 1005,8 hPa 0,0 l/m 0,2 km/h (0 Bft) O-NO 67 0 min 1,1 C 5,6 C 1,6 km/h (1 Bft)
05.12.2020 15:30 5,5 C 4,9 C 4,6 C 5,5 C 5,4 C 0,0 C 73 % 78 % 1006,0 hPa 0,0 l/m 0,2 km/h (0 Bft) O-NO 67 0 min 1,1 C 5,4 C 0,0 km/h (0 Bft)
05.12.2020 15:35 5,5 C 4,9 C 4,5 C 5,5 C 5,4 C 0,0 C 74 % 79 % 1006,0 hPa 0,0 l/m 0,0 km/h (0 Bft) O-NO 67 0 min 1,2 C 5,4 C 0,0 km/h (0 Bft)
05.12.2020 15:40 5,3 C 4,9 C 4,5 C 5,3 C 5,3 C 0,0 C 74 % 79 % 1006,0 hPa 0,0 l/m 0,5 km/h (0 Bft) O-NO 67 0 min 1,0 C 5,3 C 0,0 km/h (0 Bft)
05.12.2020 15:45 5,1 C 4,9 C 4,3 C 5,2 C 5,2 C 0,1 C 74 % 80 % 1006,0 hPa 0,0 l/m 2,4 km/h (1 Bft) O-NO 67 0 min 0,9 C 5,2 C 2,9 km/h (1 Bft)
05.12.2020 15:50 5,1 C 4,9 C 4,2 C 5,1 C 5,0 C 0,0 C 74 % 80 % 1005,6 hPa 0,0 l/m 1,9 km/h (1 Bft) N-NO 22 0 min 0,9 C 5,0 C 0,0 km/h (0 Bft)
05.12.2020 15:55 4,8 C 4,9 C 4,0 C 4,8 C 4,7 C 0,0 C 75 % 80 % 1005,6 hPa 0,0 l/m 0,3 km/h (0 Bft) N-NO 22 0 min 0,8 C 4,7 C 0,0 km/h (0 Bft)
05.12.2020 16:00 4,9 C 5,0 C 4,0 C 4,8 C 4,7 C 0,0 C 75 % 80 % 1005,6 hPa 0,0 l/m 0,0 km/h (0 Bft) N-NO 22 0 min 0,8 C 4,7 C 0,0 km/h (0 Bft)
05.12.2020 16:05 4,7 C 5,0 C 3,9 C 4,6 C 4,5 C 0,0 C 75 % 80 % 1005,6 hPa 0,0 l/m 0,0 km/h (0 Bft) N-NO 22 0 min 0,7 C 4,5 C 0,0 km/h (0 Bft)
05.12.2020 16:10 4,6 C 5,0 C 3,8 C 4,5 C 4,4 C 0,0 C 75 % 81 % 1006,1 hPa 0,0 l/m 0,0 km/h (0 Bft) N-NO 22 0 min 0,6 C 4,4 C 0,0 km/h (0 Bft)
05.12.2020 16:15 4,5 C 5,0 C 3,7 C 4,4 C 4,3 C 0,0 C 76 % 81 % 1006,1 hPa 0,0 l/m 0,0 km/h (0 Bft) N-NO 22 0 min 0,6 C 4,3 C 0,0 km/h (0 Bft)
05.12.2020 16:20 4,4 C 5,0 C 3,6 C 4,3 C 4,2 C 0,0 C 76 % 82 % 1006,1 hPa 0,0 l/m 0,0 km/h (0 Bft) N-NO 22 0 min 0,5 C 4,2 C 0,0 km/h (0 Bft)
05.12.2020 16:25 4,4 C 5,0 C 3,5 C 4,3 C 4,1 C 0,0 C 77 % 82 % 1006,1 hPa 0,0 l/m 0,0 km/h (0 Bft) N-NO 22 0 min 0,7 C 4,1 C 0,0 km/h (0 Bft)
05.12.2020 16:30 4,3 C 5,0 C 3,5 C 4,2 C 4,1 C 0,0 C 76 % 82 % 1005,6 hPa 0,0 l/m 0,8 km/h (0 Bft) O-NO 67 0 min 0,5 C 4,1 C 2,4 km/h (1 Bft)
05.12.2020 16:35 4,2 C 5,0 C 3,4 C 4,2 C 4,1 C 0,0 C 77 % 82 % 1005,6 hPa 0,0 l/m 1,1 km/h (1 Bft) O-NO 67 0 min 0,5 C 4,1 C 0,0 km/h (0 Bft)
05.12.2020 16:40 4,1 C 5,0 C 3,4 C 4,1 C 4,0 C 0,0 C 77 % 82 % 1005,6 hPa 0,0 l/m 0,6 km/h (0 Bft) O-NO 67 0 min 0,4 C 4,0 C 0,0 km/h (0 Bft)
05.12.2020 16:45 4,0 C 5,0 C 3,4 C 3,9 C 3,8 C 0,0 C 78 % 83 % 1005,6 hPa 0,0 l/m 0,2 km/h (0 Bft) O-NO 67 0 min 0,5 C 3,8 C 0,0 km/h (0 Bft)
05.12.2020 16:50 4,1 C 5,0 C 3,3 C 4,0 C 3,7 C 0,0 C 78 % 83 % 1006,1 hPa 0,0 l/m 0,0 km/h (0 Bft) O-NO 67 0 min 0,6 C 3,7 C 0,0 km/h (0 Bft)
05.12.2020 16:55 3,9 C 5,1 C 3,2 C 3,8 C 3,5 C 0,0 C 78 % 84 % 1006,1 hPa 0,0 l/m 0,3 km/h (0 Bft) O-NO 67 0 min 0,4 C 3,5 C 1,8 km/h (1 Bft)
05.12.2020 17:00 3,8 C 5,1 C 3,2 C 3,7 C 3,5 C 0,0 C 79 % 84 % 1006,1 hPa 0,0 l/m 0,6 km/h (0 Bft) O-NO 67 0 min 0,5 C 3,5 C 1,6 km/h (1 Bft)
05.12.2020 17:05 3,9 C 5,1 C 3,1 C 3,8 C 3,6 C 0,0 C 79 % 85 % 1006,1 hPa 0,0 l/m 1,4 km/h (1 Bft) O-NO 67 0 min 0,6 C 3,6 C 3,1 km/h (1 Bft)
05.12.2020 17:10 3,7 C 5,1 C 3,1 C 3,7 C 3,6 C 0,0 C 79 % 85 % 1005,9 hPa 0,0 l/m 1,6 km/h (1 Bft) O-NO 67 0 min 0,4 C 3,6 C 0,0 km/h (0 Bft)
05.12.2020 17:15 3,7 C 5,1 C 3,0 C 3,7 C 3,6 C 0,0 C 79 % 84 % 1005,9 hPa 0,0 l/m 0,6 km/h (0 Bft) O-NO 67 0 min 0,4 C 3,6 C 0,0 km/h (0 Bft)
05.12.2020 17:20 3,6 C 5,1 C 3,0 C 3,6 C 3,5 C 0,0 C 79 % 85 % 1005,9 hPa 0,0 l/m 0,0 km/h (0 Bft) O-NO 67 0 min 0,3 C 3,5 C 0,0 km/h (0 Bft)
05.12.2020 17:25 3,6 C 5,1 C 2,9 C 3,6 C 3,5 C 0,0 C 80 % 85 % 1005,9 hPa 0,0 l/m 0,0 km/h (0 Bft) O-NO 67 0 min 0,5 C 3,5 C 1,6 km/h (1 Bft)
05.12.2020 17:30 3,6 C 5,2 C 2,9 C 3,6 C 3,6 C 0,0 C 80 % 86 % 1005,2 hPa 0,0 l/m 0,8 km/h (0 Bft) O-NO 67 0 min 0,5 C 3,6 C 2,7 km/h (1 Bft)
05.12.2020 17:35 3,6 C 5,1 C 3,1 C 3,7 C 3,7 C 0,1 C 81 % 85 % 1005,2 hPa 0,0 l/m 1,4 km/h (1 Bft) O-NO 67 0 min 0,7 C 3,7 C 0,0 km/h (0 Bft)
05.12.2020 17:40 3,7 C 5,1 C 3,1 C 3,7 C 3,6 C 0,0 C 81 % 85 % 1005,2 hPa 0,0 l/m 1,0 km/h (0 Bft) O-NO 67 0 min 0,7 C 3,6 C 0,0 km/h (0 Bft)
05.12.2020 17:45 3,6 C 5,1 C 2,9 C 3,6 C 3,5 C 0,0 C 81 % 85 % 1005,2 hPa 0,0 l/m 0,0 km/h (0 Bft) O-NO 67 0 min 0,7 C 3,5 C 0,0 km/h (0 Bft)
05.12.2020 17:50 3,5 C 5,2 C 2,8 C 3,5 C 3,4 C 0,0 C 81 % 85 % 1005,4 hPa 0,0 l/m 0,0 km/h (0 Bft) O-NO 67 0 min 0,6 C 3,4 C 0,0 km/h (0 Bft)
05.12.2020 17:55 3,5 C 5,2 C 2,7 C 3,4 C 3,2 C 0,0 C 81 % 85 % 1005,4 hPa 0,0 l/m 0,0 km/h (0 Bft) O-NO 67 0 min 0,6 C 3,2 C 0,0 km/h (0 Bft)
05.12.2020 18:00 3,3 C 5,2 C 2,7 C 3,2 C 3,0 C 0,0 C 81 % 86 % 1005,4 hPa 0,0 l/m 0,0 km/h (0 Bft) O-NO 67 0 min 0,4 C 3,0 C 0,0 km/h (0 Bft)
05.12.2020 18:05 3,2 C 5,2 C 2,6 C 3,1 C 3,0 C 0,0 C 81 % 86 % 1005,4 hPa 0,0 l/m 0,0 km/h (0 Bft) O-NO 67 0 min 0,3 C 3,0 C 0,0 km/h (0 Bft)
05.12.2020 18:10 3,2 C 5,2 C 2,5 C 3,1 C 2,9 C 0,0 C 81 % 86 % 1005,4 hPa 0,0 l/m 0,0 km/h (0 Bft) O-NO 67 0 min 0,3 C 2,9 C 0,0 km/h (0 Bft)
05.12.2020 18:15 3,1 C 5,2 C 2,4 C 3,0 C 2,8 C 0,0 C 81 % 86 % 1005,4 hPa 0,0 l/m 0,0 km/h (0 Bft) O-NO 67 0 min 0,2 C 2,8 C 0,0 km/h (0 Bft)
05.12.2020 18:20 3,1 C 5,3 C 2,4 C 3,0 C 2,8 C 0,0 C 81 % 86 % 1005,4 hPa 0,0 l/m 0,0 km/h (0 Bft) O-NO 67 0 min 0,2 C 2,8 C 0,0 km/h (0 Bft)
05.12.2020 18:25 3,1 C 5,2 C 2,4 C 3,0 C 2,8 C 0,0 C 82 % 86 % 1005,4 hPa 0,0 l/m 0,0 km/h (0 Bft) O-NO 67 0 min 0,3 C 2,8 C 0,0 km/h (0 Bft)
05.12.2020 18:30 3,1 C 5,2 C 2,4 C 3,0 C 2,8 C 0,0 C 82 % 86 % 1005,2 hPa 0,0 l/m 0,0 km/h (0 Bft) O-NO 67 0 min 0,3 C 2,8 C 0,0 km/h (0 Bft)
05.12.2020 18:35 3,0 C 5,2 C 2,5 C 3,0 C 2,9 C 0,0 C 82 % 87 % 1005,2 hPa 0,0 l/m 0,0 km/h (0 Bft) O-NO 67 0 min 0,2 C 2,9 C 0,0 km/h (0 Bft)
05.12.2020 18:40 3,0 C 5,2 C 2,5 C 3,0 C 3,0 C 0,0 C 82 % 87 % 1005,2 hPa 0,0 l/m 0,0 km/h (0 Bft) O-NO 67 0 min 0,2 C 3,0 C 0,0 km/h (0 Bft)
05.12.2020 18:45 2,9 C 5,3 C 2,5 C 3,0 C 3,0 C 0,1 C 82 % 87 % 1005,2 hPa 0,0 l/m 0,0 km/h (0 Bft) O-NO 67 0 min 0,1 C 3,0 C 0,0 km/h (0 Bft)
05.12.2020 18:50 2,9 C 5,3 C 2,5 C 3,0 C 3,0 C 0,1 C 82 % 87 % 1005,2 hPa 0,0 l/m 0,0 km/h (0 Bft) O-NO 67 0 min 0,1 C 3,0 C 0,0 km/h (0 Bft)
05.12.2020 18:55 2,9 C 5,3 C 2,4 C 2,9 C 2,9 C 0,0 C 82 % 87 % 1005,2 hPa 0,0 l/m 0,0 km/h (0 Bft) O-NO 67 0 min 0,1 C 2,9 C 0,0 km/h (0 Bft)
05.12.2020 19:00 2,9 C 5,3 C 2,5 C 3,0 C 3,0 C 0,1 C 83 % 87 % 1005,2 hPa 0,0 l/m 0,3 km/h (0 Bft) O-NO 67 0 min 0,3 C 3,0 C 1,6 km/h (1 Bft)
05.12.2020 19:05 2,9 C 5,3 C 2,5 C 2,9 C 2,9 C 0,0 C 83 % 87 % 1005,2 hPa 0,0 l/m 0,3 km/h (0 Bft) O-NO 67 0 min 0,3 C 2,9 C 0,0 km/h (0 Bft)
05.12.2020 19:10 2,9 C 5,3 C 2,5 C 2,9 C 2,9 C 0,0 C 83 % 87 % 1005,2 hPa 0,0 l/m 0,0 km/h (0 Bft) O-NO 67 0 min 0,3 C 2,9 C 0,0 km/h (0 Bft)
05.12.2020 19:15 2,8 C 5,3 C 2,5 C 3,0 C 3,0 C 0,2 C 83 % 87 % 1005,2 hPa 0,0 l/m 0,0 km/h (0 Bft) O-NO 67 0 min 0,2 C 3,0 C 0,0 km/h (0 Bft)
05.12.2020 19:20 2,9 C 5,3 C 2,5 C 3,0 C 3,0 C 0,1 C 83 % 87 % 1005,2 hPa 0,0 l/m 0,0 km/h (0 Bft) O-NO 67 0 min 0,3 C 3,0 C 0,0 km/h (0 Bft)
05.12.2020 19:25 2,9 C 5,3 C 2,5 C 3,0 C 3,0 C 0,1 C 83 % 88 % 1005,2 hPa 0,0 l/m 0,2 km/h (0 Bft) O-NO 67 0 min 0,3 C 3,0 C 0,0 km/h (0 Bft)
05.12.2020 19:30 2,8 C 5,3 C 2,5 C 3,1 C 3,1 C 0,3 C 83 % 88 % 1005,1 hPa 0,0 l/m 0,2 km/h (0 Bft) O-NO 67 0 min 0,2 C 3,1 C 0,0 km/h (0 Bft)
05.12.2020 19:35 2,9 C 5,3 C 2,5 C 3,1 C 3,1 C 0,2 C 84 % 88 % 1005,1 hPa 0,0 l/m 1,1 km/h (1 Bft) O-NO 67 0 min 0,5 C 3,1 C 2,4 km/h (1 Bft)
05.12.2020 19:40 3,0 C 5,3 C 2,5 C 3,0 C 3,0 C 0,0 C 84 % 88 % 1005,1 hPa 0,0 l/m 2,1 km/h (1 Bft) O-NO 67 0 min 0,6 C 3,0 C 2,9 km/h (1 Bft)
05.12.2020 19:45 3,2 C 5,2 C 2,7 C 3,2 C 3,2 C 0,0 C 84 % 87 % 1005,1 hPa 0,0 l/m 2,1 km/h (1 Bft) O-NO 67 0 min 0,8 C 3,2 C 0,0 km/h (0 Bft)
05.12.2020 19:50 3,2 C 5,2 C 2,7 C 3,2 C 3,1 C 0,0 C 84 % 87 % 1005,3 hPa 0,0 l/m 1,6 km/h (1 Bft) O-NO 67 0 min 0,8 C 3,1 C 2,9 km/h (1 Bft)
05.12.2020 19:55 3,3 C 5,2 C 2,7 C 3,2 C 3,0 C 0,0 C 83 % 87 % 1005,3 hPa 0,0 l/m 1,1 km/h (1 Bft) O-NO 67 0 min 0,7 C 3,0 C 0,0 km/h (0 Bft)
05.12.2020 20:00 3,3 C 5,2 C 2,7 C 3,2 C 3,1 C 0,0 C 83 % 87 % 1005,3 hPa 0,0 l/m 1,0 km/h (0 Bft) O-NO 67 0 min 0,7 C 3,1 C 0,0 km/h (0 Bft)
05.12.2020 20:05 3,2 C 5,2 C 2,6 C 3,2 C 3,1 C 0,0 C 83 % 87 % 1005,3 hPa 0,0 l/m 0,2 km/h (0 Bft) O-NO 67 0 min 0,6 C 3,1 C 0,0 km/h (0 Bft)
05.12.2020 20:10 3,2 C 5,2 C 2,5 C 3,1 C 3,0 C 0,0 C 83 % 87 % 1006,1 hPa 0,0 l/m 0,0 km/h (0 Bft) O-NO 67 0 min 0,6 C 3,0 C 0,0 km/h (0 Bft)
05.12.2020 20:15 3,1 C 5,2 C 2,5 C 3,0 C 2,9 C 0,0 C 83 % 87 % 1006,1 hPa 0,0 l/m 0,0 km/h (0 Bft) O-NO 67 0 min 0,5 C 2,9 C 0,0 km/h (0 Bft)
05.12.2020 20:20 3,1 C 5,3 C 2,5 C 3,0 C 2,8 C 0,0 C 83 % 87 % 1006,1 hPa 0,0 l/m 0,0 km/h (0 Bft) O-NO 67 0 min 0,5 C 2,8 C 0,0 km/h (0 Bft)
05.12.2020 20:25 3,1 C 5,3 C 2,4 C 3,0 C 2,7 C 0,0 C 83 % 87 % 1006,1 hPa 0,0 l/m 0,0 km/h (0 Bft) O-NO 67 0 min 0,5 C 2,7 C 0,0 km/h (0 Bft)
05.12.2020 20:30 3,1 C 5,3 C 2,4 C 3,0 C 2,7 C 0,0 C 83 % 87 % 1006,1 hPa 0,0 l/m 0,0 km/h (0 Bft) O-NO 67 0 min 0,5 C 2,7 C 0,0 km/h (0 Bft)
05.12.2020 20:35 2,9 C 5,3 C 2,3 C 2,8 C 2,7 C 0,0 C 83 % 87 % 1006,1 hPa 0,0 l/m 0,6 km/h (0 Bft) O-NO 67 0 min 0,3 C 2,7 C 1,9 km/h (1 Bft)
05.12.2020 20:40 2,9 C 5,3 C 2,3 C 2,9 C 2,8 C 0,0 C 83 % 87 % 1006,1 hPa 0,0 l/m 1,3 km/h (1 Bft) O-NO 67 0 min 0,3 C 2,8 C 1,6 km/h (1 Bft)
05.12.2020 20:45 2,8 C 5,3 C 2,3 C 2,8 C 2,8 C 0,0 C 83 % 87 % 1006,1 hPa 0,0 l/m 1,1 km/h (1 Bft) O-NO 67 0 min 0,2 C 2,8 C 1,9 km/h (1 Bft)
05.12.2020 20:50 2,9 C 5,3 C 2,3 C 2,9 C 2,8 C 0,0 C 83 % 88 % 1005,7 hPa 0,0 l/m 0,6 km/h (0 Bft) O-NO 67 0 min 0,3 C 2,8 C 1,8 km/h (1 Bft)
05.12.2020 20:55 2,8 C 5,3 C 2,2 C 2,8 C 2,8 C 0,0 C 83 % 87 % 1005,7 hPa 0,0 l/m 0,6 km/h (0 Bft) O-NO 67 0 min 0,2 C 2,8 C 2,4 km/h (1 Bft)
05.12.2020 21:00 2,9 C 5,3 C 2,2 C 2,8 C 2,6 C 0,0 C 83 % 88 % 1005,7 hPa 0,0 l/m 1,1 km/h (1 Bft) O-NO 67 0 min 0,3 C 2,6 C 1,8 km/h (1 Bft)
05.12.2020 21:05 2,8 C 5,3 C 2,2 C 2,7 C 2,5 C 0,0 C 83 % 87 % 1005,7 hPa 0,0 l/m 1,0 km/h (0 Bft) O-NO 67 0 min 0,2 C 2,5 C 0,0 km/h (0 Bft)
05.12.2020 21:10 2,9 C 5,3 C 2,1 C 2,7 C 2,3 C 0,0 C 83 % 87 % 1006,0 hPa 0,0 l/m 0,2 km/h (0 Bft) O-NO 67 0 min 0,3 C 2,3 C 0,0 km/h (0 Bft)
05.12.2020 21:15 2,7 C 5,3 C 1,9 C 2,5 C 2,1 C 0,0 C 83 % 87 % 1006,0 hPa 0,0 l/m 0,0 km/h (0 Bft) O-NO 67 0 min 0,1 C 2,1 C 0,0 km/h (0 Bft)
05.12.2020 21:20 2,6 C 5,3 C 1,9 C 2,4 C 2,1 C 0,0 C 83 % 87 % 1006,0 hPa 0,0 l/m 0,0 km/h (0 Bft) O-NO 67 0 min 0,0 C 2,1 C 0,0 km/h (0 Bft)
05.12.2020 21:25 2,6 C 5,3 C 1,8 C 2,4 C 2,1 C 0,0 C 83 % 88 % 1006,0 hPa 0,0 l/m 0,0 km/h (0 Bft) O-NO 67 0 min 0,0 C 2,1 C 0,0 km/h (0 Bft)
05.12.2020 21:30 2,5 C 5,3 C 1,7 C 2,4 C 2,1 C 0,0 C 83 % 88 % 1006,0 hPa 0,0 l/m 0,0 km/h (0 Bft) O-NO 67 0 min -0,1 C 2,1 C 0,0 km/h (0 Bft)
05.12.2020 21:35 2,4 C 5,3 C 1,6 C 2,3 C 2,0 C 0,0 C 83 % 88 % 1006,0 hPa 0,0 l/m 0,0 km/h (0 Bft) O-NO 67 0 min -0,2 C 2,0 C 0,0 km/h (0 Bft)
05.12.2020 21:40 2,4 C 5,3 C 1,5 C 2,3 C 2,0 C 0,0 C 83 % 88 % 1006,0 hPa 0,0 l/m 0,0 km/h (0 Bft) O-NO 67 0 min -0,2 C 2,0 C 0,0 km/h (0 Bft)
05.12.2020 21:45 2,4 C 5,3 C 1,6 C 2,3 C 2,0 C 0,0 C 84 % 88 % 1006,0 hPa 0,0 l/m 0,0 km/h (0 Bft) O-NO 67 0 min -0,0 C 2,0 C 0,0 km/h (0 Bft)
05.12.2020 21:50 2,3 C 5,3 C 1,6 C 2,2 C 1,9 C 0,0 C 84 % 88 % 1005,6 hPa 0,0 l/m 0,0 km/h (0 Bft) O-NO 67 0 min -0,1 C 1,9 C 0,0 km/h (0 Bft)
05.12.2020 21:55 2,3 C 5,3 C 1,5 C 2,2 C 2,0 C 0,0 C 84 % 88 % 1005,6 hPa 0,0 l/m 0,0 km/h (0 Bft) O-NO 67 0 min -0,1 C 2,0 C 0,0 km/h (0 Bft)
05.12.2020 22:00 2,3 C 5,3 C 1,5 C 2,2 C 1,9 C 0,0 C 84 % 88 % 1005,6 hPa 0,0 l/m 0,0 km/h (0 Bft) O-NO 67 0 min -0,1 C 1,9 C 0,0 km/h (0 Bft)
05.12.2020 22:05 2,3 C 5,3 C 1,5 C 2,2 C 1,9 C 0,0 C 84 % 88 % 1005,6 hPa 0,0 l/m 0,0 km/h (0 Bft) N-NO 22 0 min -0,1 C 1,9 C 0,0 km/h (0 Bft)
05.12.2020 22:10 2,3 C 5,3 C 1,6 C 2,1 C 1,8 C 0,0 C 84 % 89 % 1005,1 hPa 0,0 l/m 0,0 km/h (0 Bft) N-NO 22 0 min -0,1 C 1,8 C 0,0 km/h (0 Bft)
05.12.2020 22:15 2,3 C 5,3 C 1,6 C 2,1 C 1,7 C 0,0 C 84 % 88 % 1005,1 hPa 0,0 l/m 0,0 km/h (0 Bft) N-NO 22 0 min -0,1 C 1,7 C 0,0 km/h (0 Bft)
05.12.2020 22:20 2,3 C 5,3 C 1,5 C 2,1 C 1,6 C 0,0 C 84 % 88 % 1005,1 hPa 0,0 l/m 0,0 km/h (0 Bft) N-NO 22 0 min -0,1 C 1,6 C 0,0 km/h (0 Bft)
05.12.2020 22:25 2,3 C 5,3 C 1,6 C 2,1 C 1,6 C 0,0 C 84 % 89 % 1005,1 hPa 0,0 l/m 0,8 km/h (0 Bft) O-NO 67 0 min -0,1 C 1,6 C 1,8 km/h (1 Bft)
05.12.2020 22:30 2,3 C 5,3 C 1,6 C 2,1 C 1,7 C 0,0 C 84 % 89 % 1005,2 hPa 0,0 l/m 1,1 km/h (1 Bft) O-NO 67 0 min -0,1 C 1,7 C 0,0 km/h (0 Bft)
05.12.2020 22:35 2,3 C 5,3 C 1,7 C 2,1 C 1,7 C 0,0 C 84 % 89 % 1005,2 hPa 0,0 l/m 0,6 km/h (0 Bft) O-NO 67 0 min -0,1 C 1,7 C 0,0 km/h (0 Bft)
05.12.2020 22:40 2,2 C 5,3 C 1,7 C 2,0 C 1,7 C 0,0 C 84 % 89 % 1005,2 hPa 0,0 l/m 0,3 km/h (0 Bft) NW 315 0 min -0,2 C 1,7 C 2,9 km/h (1 Bft)
05.12.2020 22:45 2,3 C 5,3 C 1,8 C 2,2 C 1,9 C 0,0 C 85 % 89 % 1005,2 hPa 0,0 l/m 0,3 km/h (0 Bft) N 360 0 min 0,0 C 1,9 C 1,8 km/h (1 Bft)
05.12.2020 22:50 2,3 C 5,3 C 1,8 C 2,2 C 2,0 C 0,0 C 85 % 89 % 1005,4 hPa 0,0 l/m 0,3 km/h (0 Bft) N 360 0 min 0,0 C 2,0 C 0,0 km/h (0 Bft)
05.12.2020 22:55 2,4 C 5,3 C 1,9 C 2,3 C 2,1 C 0,0 C 85 % 89 % 1005,4 hPa 0,0 l/m 0,3 km/h (0 Bft) N 360 0 min 0,1 C 2,1 C 0,0 km/h (0 Bft)
05.12.2020 23:00 2,4 C 5,3 C 2,0 C 2,4 C 2,3 C 0,0 C 85 % 89 % 1005,4 hPa 0,0 l/m 0,3 km/h (0 Bft) NW 315 0 min 0,1 C 2,3 C 0,0 km/h (0 Bft)
05.12.2020 23:05 2,5 C 5,3 C 2,1 C 2,5 C 2,4 C 0,0 C 85 % 88 % 1005,4 hPa 0,0 l/m 0,5 km/h (0 Bft) O-NO 67 0 min 0,2 C 2,4 C 0,0 km/h (0 Bft)
05.12.2020 23:10 2,5 C 5,2 C 2,2 C 2,5 C 2,5 C 0,0 C 85 % 89 % 1005,6 hPa 0,0 l/m 0,3 km/h (0 Bft) N-NO 22 0 min 0,2 C 2,5 C 0,0 km/h (0 Bft)
05.12.2020 23:15 2,6 C 5,3 C 2,3 C 2,6 C 2,5 C 0,0 C 85 % 89 % 1005,6 hPa 0,0 l/m 0,2 km/h (0 Bft) N-NW 337 0 min 0,3 C 2,5 C 0,0 km/h (0 Bft)
05.12.2020 23:20 2,7 C 5,3 C 2,2 C 2,7 C 2,6 C 0,0 C 85 % 89 % 1005,6 hPa 0,0 l/m 0,3 km/h (0 Bft) NO 45 0 min 0,4 C 2,6 C 2,1 km/h (1 Bft)
05.12.2020 23:25 2,7 C 5,3 C 2,3 C 2,7 C 2,6 C 0,0 C 85 % 88 % 1005,6 hPa 0,0 l/m 0,8 km/h (0 Bft) O-NO 67 0 min 0,4 C 2,6 C 1,9 km/h (1 Bft)
05.12.2020 23:30 2,7 C 5,3 C 2,3 C 2,7 C 2,6 C 0,0 C 85 % 88 % 1005,4 hPa 0,0 l/m 1,0 km/h (0 Bft) O-NO 67 0 min 0,4 C 2,6 C 0,0 km/h (0 Bft)
05.12.2020 23:35 2,7 C 5,3 C 2,3 C 2,6 C 2,5 C 0,0 C 85 % 88 % 1005,4 hPa 0,0 l/m 1,0 km/h (0 Bft) O-NO 67 0 min 0,4 C 2,5 C 2,3 km/h (1 Bft)
05.12.2020 23:40 2,7 C 5,3 C 2,2 C 2,6 C 2,5 C 0,0 C 85 % 88 % 1005,4 hPa 0,0 l/m 1,1 km/h (1 Bft) O-NO 67 0 min 0,4 C 2,5 C 2,4 km/h (1 Bft)
05.12.2020 23:45 2,6 C 5,3 C 2,2 C 2,5 C 2,4 C 0,0 C 85 % 88 % 1005,4 hPa 0,0 l/m 1,8 km/h (1 Bft) O-NO 67 0 min 0,3 C 2,4 C 3,2 km/h (1 Bft)
05.12.2020 23:50 2,5 C 5,3 C 2,0 C 2,4 C 2,2 C 0,0 C 85 % 88 % 1005,3 hPa 0,0 l/m 1,6 km/h (1 Bft) O-NO 67 0 min 0,2 C 2,2 C 2,9 km/h (1 Bft)
05.12.2020 23:55 2,4 C 5,3 C 1,9 C 2,3 C 2,0 C 0,0 C 85 % 88 % 1005,3 hPa 0,0 l/m 1,0 km/h (0 Bft) O-NO 67 0 min 0,1 C 2,0 C 2,3 km/h (1 Bft)
_ Min-Zeit 08:38 00:00 08:38 08:38 08:11 00:00 13:10 13:35 04:11 - 04:50 - - - 08:38 01:30 00:11
Minimum _ 0,5 C 4,3 C -0,3 C 0,2 C -0,7 C 0,0 C 71 % 74 % 995,1 hPa - 0,0 km/h (0 Bft) - - - -2,4 C -1,7 C 0,0 km/h (0 Bft)
_ Max-Zeit 13:10 18:20 12:45 12:50 12:50 11:20 22:45 09:45 16:10 00:00 02:37 - - 00:00 12:45 12:50 05:55
Maximum _ 6,7 C 5,3 C 6,2 C 8,1 C 8,1 C 2,5 C 85 % 89 % 1006,1 hPa 0,0 l/m 6,3 km/h
O-NO (2 Bft)
- - 0 min 1,9 C 8,1 C 14,6 km/h
S-SO (3 Bft)
Durchschnitt _ 3,4 C 4,8 C 2,6 C 3,5 C 3,2 C 0,2 C 79 % 84 % 1001,9 hPa #0,0 l/m 1,4 km/h (1 Bft) O-NO - #0 min. 0,1 C 3,0 C 1,9 km/h (1 Bft)
2020 www.wetterstation-wechselburg.de